Location: ?
(35.6144°N, 139.6873°E)
Time: 16:20:37
(UTC+00:00)

SL-8 R/B - Pass Details

Date: 23 May 2024
Orbit: 652 x 662 km, 48.4° (Epoch: 15 June)

Event Time Altitude Azimuth Distance (km) Brightness Sun altitude
Rises 10:28:40 0° 235° (SW) 2,955 7.3 -8.4°
Reaches altitude 10° 10:31:00 10° 236° (SW) 2,047 6.5 -8.8°
Maximum altitude 10:35:43 80° 323° (NW) 663 3.8 -9.6°
Drops below altitude 10° 10:40:29 10° 52° (NE) 2,058 6.1 -10.4°
Sets 10:42:50 0° 53° (NE) 2,972 6.9 -10.8°
